GW4127 Weather Reports


time (UTC)temp
C
wind
direction
speed
KPH
gust
KPH
rain 1hr
cm
rain 24hr
cm
rain mn
cm
humidity
%
barometer
mb
20260507223100 8 301 3.2 9.7 0.00 0.05 0.00 81 1018.6
20260507221547 8 301 3.2 9.7 0.00 0.05 0.00 82 1018.6
20260507220029 8 301 1.6 6.4 0.00 0.05 0.05 89 1018.8
20260507214521 8 301 1.6 8.0 0.00 0.05 0.05 93 1018.8
20260507213104 8 301 3.2 8.0 0.00 0.05 0.05 90 1018.8
20260507211523 8 301 1.6 8.0 0.00 0.05 0.05 91 1018.7
20260507210031 7 301 0.0 8.0 0.00 0.05 0.05 94 1018.6
20260507204505 8 301 0.0 12.9 0.00 0.05 0.05 95 1018.4
20260507203102 8 301 3.2 9.7 0.00 0.05 0.05 95 1018.4
20260507201555 8 301 4.8 14.5 0.00 0.05 0.05 95 1018.1
20260507200045 8 301 8.0 14.5 0.00 0.05 0.05 93 1018.0
20260507194603 8 301 3.2 6.4 0.00 0.05 0.05 94 1017.7
20260507193019 8 301 1.6 6.4 0.00 0.05 0.05 94 1017.6
20260507191511 9 301 1.6 8.0 0.00 0.05 0.05 94 1017.5
20260507190006 10 301 0.0 6.4 0.00 0.05 0.05 92 1017.4
20260507184501 10 301 0.0 8.0 0.00 0.05 0.05 91 1017.3
20260507183051 11 301 3.2 9.7 0.00 0.05 0.05 89 1017.0
20260507181538 11 301 1.6 9.7 0.00 0.05 0.05 89 1016.7
20260507180039 11 301 6.4 17.7 0.00 0.05 0.05 86 1016.7
20260507174533 12 301 4.8 12.9 0.00 0.05 0.05 85 1016.6
20260507173031 12 301 4.8 14.5 0.00 0.05 0.05 83 1016.5
20260507171517 13 301 3.2 16.1 0.00 0.05 0.05 81 1016.3
20260507170007 14 301 4.8 14.5 0.00 0.05 0.05 79 1016.4
20260507164503 13 301 6.4 16.1 0.00 0.05 0.05 80 1016.3
20260507163053 13 301 4.8 16.1 0.00 0.05 0.05 81 1016.4
20260507161538 13 301 6.4 19.3 0.00 0.05 0.05 82 1016.2
20260507160035 13 301 6.4 20.9 0.00 0.05 0.05 80 1016.2
20260507154528 14 301 9.7 20.9 0.00 0.05 0.05 79 1016.0
20260507153015 15 300 8.0 16.1 0.00 0.05 0.05 78 1016.3
20260507151505 14 301 6.4 17.7 0.00 0.05 0.05 82 1016.3
20260507150100 15 301 8.0 17.7 0.00 0.05 0.05 80 1016.3
20260507144549 15 301 3.2 16.1 0.00 0.05 0.05 79 1016.4
20260507143031 13 301 4.8 11.3 0.03 0.05 0.05 81 1016.5
20260507141519 13 301 3.2 12.9 0.03 0.05 0.05 87 1016.7
20260507140010 13 301 4.8 12.9 0.03 0.05 0.05 91 1017.0
20260507134501 11 301 6.4 14.5 0.05 0.05 0.05 94 1017.1
20260507133054 10 301 4.8 12.9 0.03 0.03 0.03 94 1017.6
20260507131609 10 301 3.2 11.3 0.03 0.03 0.03 94 1017.6
20260507130045 10 301 8.0 19.3 0.03 0.03 0.03 93 1017.6
20260507124536 11 301 4.8 19.3 0.00 0.00 0.00 90 1017.8
20260507123025 12 301 6.4 14.5 0.00 0.00 0.00 87 1017.8
20260507121519 12 301 1.6 12.9 0.00 0.00 0.00 86 1017.8
20260507120018 12 301 4.8 16.1 0.00 0.00 0.00 84 1018.0
20260507114604 12 301 3.2 12.9 0.00 0.00 0.00 83 1018.0
20260507113048 12 301 3.2 16.1 0.00 0.00 0.00 84 1018.2
20260507111547 12 301 6.4 14.5 0.00 0.00 0.00 81 1018.2
20260507110035 13 301 9.7 17.7 0.00 0.00 0.00 79 1018.3
20260507104523 13 301 1.6 8.0 0.00 0.00 0.00 80 1018.4
20260507103025 13 301 3.2 12.9 0.00 0.00 0.00 78 1018.5
20260507101507 13 301 3.2 11.3 0.00 0.00 0.00 77 1018.5
20260507100007 13 300 3.2 16.1 0.00 0.00 0.00 75 1018.7
20260507094559 14 301 1.6 19.3 0.00 0.00 0.00 73 1018.7
20260507093046 13 301 0.0 11.3 0.00 0.00 0.00 76 1018.7
20260507091524 12 301 4.8 11.3 0.00 0.00 0.00 80 1018.7
20260507090013 12 301 3.2 9.7 0.00 0.00 0.00 79 1018.6
20260507084557 12 301 1.6 8.0 0.00 0.00 0.00 81 1018.4
20260507083041 10 301 3.2 9.7 0.00 0.00 0.00 88 1018.3
20260507081535 10 301 1.6 16.1 0.00 0.00 0.00 91 1018.4
20260507080019 10 301 1.6 9.7 0.00 0.00 0.00 90 1018.4
20260507074503 10 301 3.2 9.7 0.00 0.00 0.00 88 1018.5
20260507073052 11 301 3.2 9.7 0.00 0.00 0.00 86 1018.3
20260507071559 11 301 3.2 11.3 0.00 0.00 0.00 83 1018.3
20260507070017 10 301 1.6 9.7 0.00 0.00 0.00 82 1018.2
20260507064600 9 301 1.6 9.7 0.00 0.00 0.00 85 1018.1
20260507063056 8 301 3.2 9.7 0.00 0.00 0.00 81 1018.1
20260507061556 8 301 4.8 8.0 0.00 0.00 0.00 80 1017.7
20260507060047 8 301 1.6 8.0 0.00 0.00 0.00 81 1017.5
20260507054518 8 301 3.2 9.7 0.00 0.00 0.00 83 1017.4
20260507053012 7 301 3.2 8.0 0.00 0.00 0.00 90 1017.4
20260507051503 7 301 3.2 8.0 0.00 0.00 0.00 95 1017.3
20260507050002 7 301 3.2 8.0 0.00 0.00 0.00 96 1017.2
20260507044558 7 301 3.2 12.9 0.00 0.00 0.00 97 1017.1
20260507043050 7 301 4.8 9.7 0.00 0.00 0.00 96 1017.1
20260507041534 7 301 4.8 12.9 0.00 0.00 0.00 96 1017.2
20260507040027 7 301 4.8 12.9 0.00 0.00 0.00 96 1017.2
20260507034530 7 301 6.4 12.9 0.00 0.00 0.00 95 1017.1
20260507033014 7 300 6.4 12.9 0.00 0.00 0.00 95 1017.1
20260507031554 7 301 6.4 14.5 0.00 0.00 0.00 94 1017.2
20260507030037 7 301 4.8 12.9 0.00 0.00 0.00 92 1017.2
20260507024536 8 301 3.2 9.7 0.00 0.00 0.00 87 1017.1
20260507023027 8 301 4.8 9.7 0.00 0.00 0.00 80 1017.2
20260507021516 8 301 3.2 8.0 0.00 0.00 0.00 84 1017.2
20260507020007 8 301 3.2 6.4 0.00 0.00 0.00 79 1017.2
20260507014511 8 301 3.2 8.0 0.00 0.00 0.00 84 1017.2
20260507013054 8 301 3.2 8.0 0.00 0.00 0.00 77 1017.4
20260507011540 8 301 3.2 6.4 0.00 0.00 0.00 77 1017.3
20260507010027 9 301 1.6 8.0 0.00 0.00 0.00 77 1017.3
20260507004516 8 301 3.2 8.0 0.00 0.00 0.00 77 1017.7
20260507003006 8 301 3.2 8.0 0.00 0.00 0.00 79 1017.7
20260507001552 8 301 3.2 8.0 0.00 0.00 0.00 79 1017.8
20260507000032 8 301 4.8 9.7 0.00 0.00 0.00 88 1017.8
20260506234519 7 301 3.2 8.0 0.00 0.00 0.00 91 1017.8
20260506233009 8 301 3.2 8.0 0.00 0.00 0.00 94 1018.0
20260506231602 8 301 8.0 12.9 0.00 0.00 0.00 92 1017.9
20260506231501 8 301 6.4 12.9 0.00 0.00 0.00 92 1017.9
20260506230050 8 301 4.8 12.9 0.00 0.03 0.00 87 1017.9
20260506224538 8 301 6.4 11.3 0.00 0.03 0.00 87 1017.8